Simultaneous Nadir Overpasses (SNOs) Predictions

Prediction of SNOs between METOP-A and TERRA Satellite Orbit:

Table of predicted SNOs for the next 14.0 days since TLE Epoch: 11/18/2017
Index Date (METOP-A) Time (METOP-A) Lat,Lon (METOP-A) SZA (METOP-A ) Date (TERRA) Time (TERRA) Lat,Lon (TERRA) SZA (TERRA ) Distance(km) Time Diff (sec)
1 11/18/2017 16:39:27 -81.37, 158.90 76.04 11/18/2017 16:40:24 -81.38, 158.79 76.03 1.97 57
2 11/18/2017 17:30:07 81.38, -33.45 104.01 11/18/2017 17:29:50 81.38, -33.49 104.00 0.64 17
3 11/21/2017 12:13:46 -81.37,-134.84 75.45 11/21/2017 12:14:39 -81.37,-134.97 75.44 2.28 53
4 11/21/2017 13:04:26 81.38, 32.75 104.60 11/21/2017 13:04:05 81.37, 32.74 104.58 0.78 21
5 11/24/2017 07:48:05 -81.37, -68.62 74.91 11/24/2017 07:48:53 -81.37, -68.46 74.87 2.72 48
6 11/24/2017 08:38:44 81.38, 99.33 105.17 11/24/2017 08:38:19 81.37, 99.23 105.15 1.73 25
7 11/27/2017 03:22:23 -81.37, -2.03 74.38 11/27/2017 03:23:07 -81.37, -2.06 74.37 0.94 44
8 11/27/2017 04:13:02 81.38, 165.87 105.70 11/27/2017 04:12:32 81.39, 165.99 105.70 2.28 30
9 11/29/2017 22:56:40 -81.37, 64.53 73.91 11/29/2017 22:57:19 -81.38, 64.60 73.88 1.24 39




NCC Satellite Simultaneous Nadir Overpasses (SNOs) Prediction Service
